Year,Month,Day,Hour,Minute,Value (Times are PST for temperature in C)
2020,08,17,00,00,27.40
2020,08,17,00,01,27.40
2020,08,17,00,02,27.30
2020,08,17,00,03,27.30
2020,08,17,00,04,27.30
2020,08,17,00,05,27.30
2020,08,17,00,06,27.40
2020,08,17,00,07,27.40
2020,08,17,00,08,27.40
2020,08,17,00,09,27.50
2020,08,17,00,10,27.50
2020,08,17,00,11,27.50
2020,08,17,00,12,27.50
2020,08,17,00,13,27.60
2020,08,17,00,14,27.60
2020,08,17,00,15,27.60
2020,08,17,00,16,27.60
2020,08,17,00,17,27.60
2020,08,17,00,18,27.60
2020,08,17,00,19,27.60
2020,08,17,00,20,27.60
2020,08,17,00,21,27.50
2020,08,17,00,22,27.50
2020,08,17,00,23,27.50
2020,08,17,00,24,27.50
2020,08,17,00,25,27.50
2020,08,17,00,26,27.50
2020,08,17,00,27,27.50
2020,08,17,00,28,27.40
2020,08,17,00,29,27.40
2020,08,17,00,30,27.40
2020,08,17,00,31,27.40
2020,08,17,00,32,27.40
2020,08,17,00,33,27.30
2020,08,17,00,34,27.30
2020,08,17,00,35,27.30
2020,08,17,00,36,27.30
2020,08,17,00,37,27.20
2020,08,17,00,38,27.20
2020,08,17,00,39,27.20
2020,08,17,00,40,27.10
2020,08,17,00,41,27.10
2020,08,17,00,42,27.00
2020,08,17,00,43,27.00
2020,08,17,00,44,26.90
2020,08,17,00,45,26.90
2020,08,17,00,46,26.90
2020,08,17,00,47,26.90
2020,08,17,00,48,26.90
2020,08,17,00,49,26.80
2020,08,17,00,50,26.80
2020,08,17,00,51,26.80
2020,08,17,00,52,26.80
2020,08,17,00,53,26.80
2020,08,17,00,54,26.80
2020,08,17,00,55,26.70
2020,08,17,00,56,26.70
2020,08,17,00,57,26.70
2020,08,17,00,58,26.70
2020,08,17,00,59,26.70
2020,08,17,01,00,26.60
2020,08,17,01,01,26.60
2020,08,17,01,02,26.60
2020,08,17,01,03,26.50
2020,08,17,01,04,26.40
2020,08,17,01,05,26.30
2020,08,17,01,06,26.20
2020,08,17,01,07,26.10
2020,08,17,01,08,26.00
2020,08,17,01,09,25.90
2020,08,17,01,10,25.90
2020,08,17,01,11,25.80
2020,08,17,01,12,25.70
2020,08,17,01,13,25.70
2020,08,17,01,14,25.70
2020,08,17,01,15,25.70
2020,08,17,01,16,25.70
2020,08,17,01,17,25.70
2020,08,17,01,18,25.70
2020,08,17,01,19,25.70
2020,08,17,01,20,25.80
2020,08,17,01,21,25.80
2020,08,17,01,22,25.80
2020,08,17,01,23,25.80
2020,08,17,01,24,25.70
2020,08,17,01,25,25.70
2020,08,17,01,26,25.80
2020,08,17,01,27,25.80
2020,08,17,01,28,25.80
2020,08,17,01,29,25.80
2020,08,17,01,30,25.80
2020,08,17,01,31,25.80
2020,08,17,01,32,25.90
2020,08,17,01,33,25.90
2020,08,17,01,34,26.00
2020,08,17,01,35,26.00
2020,08,17,01,36,26.10
2020,08,17,01,37,26.00
2020,08,17,01,38,25.90
2020,08,17,01,39,25.80
2020,08,17,01,40,25.70
2020,08,17,01,41,25.60
2020,08,17,01,42,25.60
2020,08,17,01,43,25.50
2020,08,17,01,44,25.40
2020,08,17,01,45,25.40
2020,08,17,01,46,25.40
2020,08,17,01,47,25.30
2020,08,17,01,48,25.30
2020,08,17,01,49,25.30
2020,08,17,01,50,25.30
2020,08,17,01,51,25.30
2020,08,17,01,52,25.20
2020,08,17,01,53,25.20
2020,08,17,01,54,25.10
2020,08,17,01,55,25.00
2020,08,17,01,56,25.00
2020,08,17,01,57,24.90
2020,08,17,01,58,24.90
2020,08,17,01,59,24.90
2020,08,17,02,00,24.80
2020,08,17,02,01,24.80
2020,08,17,02,02,24.60
2020,08,17,02,03,24.50
2020,08,17,02,04,24.40
2020,08,17,02,05,24.40
2020,08,17,02,06,24.30
2020,08,17,02,07,24.20
2020,08,17,02,08,24.20
2020,08,17,02,09,24.20
2020,08,17,02,10,24.10
2020,08,17,02,11,24.10
2020,08,17,02,12,24.10
2020,08,17,02,13,24.00
2020,08,17,02,14,24.00
2020,08,17,02,15,24.00
2020,08,17,02,16,24.00
2020,08,17,02,17,23.90
2020,08,17,02,18,23.90
2020,08,17,02,19,23.80
2020,08,17,02,20,23.80
2020,08,17,02,21,23.80
2020,08,17,02,22,23.80
2020,08,17,02,23,23.70
2020,08,17,02,24,23.70
2020,08,17,02,25,23.60
2020,08,17,02,26,23.60
2020,08,17,02,27,23.60
2020,08,17,02,28,23.60
2020,08,17,02,29,23.60
2020,08,17,02,30,23.70
2020,08,17,02,31,23.70
2020,08,17,02,32,23.70
2020,08,17,02,33,23.70
2020,08,17,02,34,23.70
2020,08,17,02,35,23.70
2020,08,17,02,36,23.70
2020,08,17,02,37,23.70
2020,08,17,02,38,23.70
2020,08,17,02,39,23.70
2020,08,17,02,40,23.70
2020,08,17,02,41,23.70
2020,08,17,02,42,23.80
2020,08,17,02,43,23.80
2020,08,17,02,44,23.80
2020,08,17,02,45,23.80
2020,08,17,02,46,23.80
2020,08,17,02,47,23.80
2020,08,17,02,48,23.80
2020,08,17,02,49,23.80
2020,08,17,02,50,23.80
2020,08,17,02,51,23.80
2020,08,17,02,52,23.80
2020,08,17,02,53,23.80
2020,08,17,02,54,23.70
2020,08,17,02,55,23.70
2020,08,17,02,56,23.70
2020,08,17,02,57,23.60
2020,08,17,02,58,23.60
2020,08,17,02,59,23.50
2020,08,17,03,00,23.40
2020,08,17,03,01,23.40
2020,08,17,03,02,23.30
2020,08,17,03,03,23.30
2020,08,17,03,04,23.30
2020,08,17,03,05,23.30
2020,08,17,03,06,23.30
2020,08,17,03,07,23.40
2020,08,17,03,08,23.40
2020,08,17,03,09,23.40
2020,08,17,03,10,23.40
2020,08,17,03,11,23.40
2020,08,17,03,12,23.50
2020,08,17,03,13,23.50
2020,08,17,03,14,23.40
2020,08,17,03,15,23.40
2020,08,17,03,16,23.40
2020,08,17,03,17,23.30
2020,08,17,03,18,23.30
2020,08,17,03,19,23.30
2020,08,17,03,20,23.30
2020,08,17,03,21,23.30
2020,08,17,03,22,23.30
2020,08,17,03,23,23.30
2020,08,17,03,24,23.30
2020,08,17,03,25,23.30
2020,08,17,03,26,23.30
2020,08,17,03,27,23.30
2020,08,17,03,28,23.30
2020,08,17,03,29,23.30
2020,08,17,03,30,23.30
2020,08,17,03,31,23.30
2020,08,17,03,32,23.30
2020,08,17,03,33,23.30
2020,08,17,03,34,23.40
2020,08,17,03,35,23.40
2020,08,17,03,36,23.40
2020,08,17,03,37,23.40
2020,08,17,03,38,23.40
2020,08,17,03,39,23.40
2020,08,17,03,40,23.30
2020,08,17,03,41,23.30
2020,08,17,03,42,23.30
2020,08,17,03,43,23.30
2020,08,17,03,44,23.30
2020,08,17,03,45,23.30
2020,08,17,03,46,23.20
2020,08,17,03,47,23.20
2020,08,17,03,48,23.20
2020,08,17,03,49,23.10
2020,08,17,03,50,23.10
2020,08,17,03,51,23.10
2020,08,17,03,52,23.10
2020,08,17,03,53,23.00
2020,08,17,03,54,23.00
2020,08,17,03,55,23.10
2020,08,17,03,56,23.30
2020,08,17,03,57,23.40
2020,08,17,03,58,23.40
2020,08,17,03,59,23.40
2020,08,17,04,00,23.40
2020,08,17,04,01,23.40
2020,08,17,04,02,23.40
2020,08,17,04,03,23.40
2020,08,17,04,04,23.30
2020,08,17,04,05,23.20
2020,08,17,04,06,23.20
2020,08,17,04,07,23.20
2020,08,17,04,08,23.20
2020,08,17,04,09,23.20
2020,08,17,04,10,23.40
2020,08,17,04,11,23.60
2020,08,17,04,12,23.70
2020,08,17,04,13,23.90
2020,08,17,04,14,24.10
2020,08,17,04,15,24.10
2020,08,17,04,16,24.20
2020,08,17,04,17,24.20
2020,08,17,04,18,24.20
2020,08,17,04,19,24.20
2020,08,17,04,20,24.20
2020,08,17,04,21,24.30
2020,08,17,04,22,24.40
2020,08,17,04,23,24.40
2020,08,17,04,24,24.50
2020,08,17,04,25,24.50
2020,08,17,04,26,24.50
2020,08,17,04,27,24.60
2020,08,17,04,28,24.60
2020,08,17,04,29,24.60
2020,08,17,04,30,24.70
2020,08,17,04,31,24.80
2020,08,17,04,32,24.80
2020,08,17,04,33,24.90
2020,08,17,04,34,24.90
2020,08,17,04,35,24.90
2020,08,17,04,36,24.90
2020,08,17,04,37,24.90
2020,08,17,04,38,24.90
2020,08,17,04,39,24.90
2020,08,17,04,40,24.90
2020,08,17,04,41,24.90
2020,08,17,04,42,24.90
2020,08,17,04,43,24.90
2020,08,17,04,44,24.90
2020,08,17,04,45,24.90
2020,08,17,04,46,24.90
2020,08,17,04,47,24.90
2020,08,17,04,48,24.90
2020,08,17,04,49,24.80
2020,08,17,04,50,24.60
2020,08,17,04,51,24.50
2020,08,17,04,52,24.30
2020,08,17,04,53,24.20
2020,08,17,04,54,24.10
2020,08,17,04,55,24.00
2020,08,17,04,56,23.80
2020,08,17,04,57,23.70
2020,08,17,04,58,23.60
2020,08,17,04,59,23.60
2020,08,17,05,00,23.60
2020,08,17,05,01,23.50
2020,08,17,05,02,23.40
2020,08,17,05,03,23.30
2020,08,17,05,04,23.30
2020,08,17,05,05,23.20
2020,08,17,05,06,23.20
2020,08,17,05,07,23.10
2020,08,17,05,08,23.10
2020,08,17,05,09,23.00
2020,08,17,05,10,23.00
2020,08,17,05,11,22.90
2020,08,17,05,12,22.90
2020,08,17,05,13,22.80
2020,08,17,05,14,22.80
2020,08,17,05,15,22.70
2020,08,17,05,16,22.60
2020,08,17,05,17,22.60
2020,08,17,05,18,22.50
2020,08,17,05,19,22.50
2020,08,17,05,20,22.40
2020,08,17,05,21,22.40
2020,08,17,05,22,22.30
2020,08,17,05,23,22.30
2020,08,17,05,24,22.30
2020,08,17,05,25,22.30
2020,08,17,05,26,22.30
2020,08,17,05,27,22.20
2020,08,17,05,28,22.20
2020,08,17,05,29,22.20
2020,08,17,05,30,22.10
2020,08,17,05,31,22.10
2020,08,17,05,32,22.10
2020,08,17,05,33,22.10
2020,08,17,05,34,22.10
2020,08,17,05,35,22.10
2020,08,17,05,36,22.10
2020,08,17,05,37,22.00
2020,08,17,05,38,21.90
2020,08,17,05,39,21.90
2020,08,17,05,40,21.90
2020,08,17,05,41,21.90
2020,08,17,05,42,21.90
2020,08,17,05,43,21.90
2020,08,17,05,44,21.90
2020,08,17,05,45,21.80
2020,08,17,05,46,21.80
2020,08,17,05,47,21.80
2020,08,17,05,48,21.80
2020,08,17,05,49,21.70
2020,08,17,05,50,21.70
2020,08,17,05,51,21.70
2020,08,17,05,52,21.70
2020,08,17,05,53,21.70
2020,08,17,05,54,21.70
2020,08,17,05,55,21.80
2020,08,17,05,56,21.80
2020,08,17,05,57,21.90
2020,08,17,05,58,21.90
2020,08,17,05,59,21.90
2020,08,17,06,00,21.90
2020,08,17,06,01,22.00
2020,08,17,06,02,22.10
2020,08,17,06,03,22.10
2020,08,17,06,04,22.30
2020,08,17,06,05,22.40
2020,08,17,06,06,22.50
2020,08,17,06,07,22.50
2020,08,17,06,08,22.60
2020,08,17,06,09,22.70
2020,08,17,06,10,22.80
2020,08,17,06,11,22.90
2020,08,17,06,12,23.00
2020,08,17,06,13,23.00
2020,08,17,06,14,23.10
2020,08,17,06,15,23.10
2020,08,17,06,16,23.10
2020,08,17,06,17,23.10
2020,08,17,06,18,23.00
2020,08,17,06,19,23.00
2020,08,17,06,20,22.90
2020,08,17,06,21,22.90
2020,08,17,06,22,22.80
2020,08,17,06,23,22.80
2020,08,17,06,24,22.70
2020,08,17,06,25,22.60
2020,08,17,06,26,22.60
2020,08,17,06,27,22.50
2020,08,17,06,28,22.40
2020,08,17,06,29,22.40
2020,08,17,06,30,22.40
2020,08,17,06,31,22.40
2020,08,17,06,32,22.40
2020,08,17,06,33,22.40
2020,08,17,06,34,22.30
2020,08,17,06,35,22.30
2020,08,17,06,36,22.30
2020,08,17,06,37,22.40
2020,08,17,06,38,22.40
2020,08,17,06,39,22.40
2020,08,17,06,40,22.40
2020,08,17,06,41,22.40
2020,08,17,06,42,22.40
2020,08,17,06,43,22.30
2020,08,17,06,44,22.20
2020,08,17,06,45,22.20
2020,08,17,06,46,22.20
2020,08,17,06,47,22.20
2020,08,17,06,48,22.20
2020,08,17,06,49,22.20
2020,08,17,06,50,22.20
2020,08,17,06,51,22.20
2020,08,17,06,52,22.10
2020,08,17,06,53,22.10
2020,08,17,06,54,22.10
2020,08,17,06,55,22.10
2020,08,17,06,56,22.10
2020,08,17,06,57,22.10
2020,08,17,06,58,22.10
2020,08,17,06,59,22.10
2020,08,17,07,00,22.20
2020,08,17,07,01,22.30
2020,08,17,07,02,22.30
2020,08,17,07,03,22.30
2020,08,17,07,04,22.30
2020,08,17,07,05,22.30
2020,08,17,07,06,22.40
2020,08,17,07,07,22.30
2020,08,17,07,08,22.40
2020,08,17,07,09,22.40
2020,08,17,07,10,22.40
2020,08,17,07,11,22.60
2020,08,17,07,12,22.70
2020,08,17,07,13,22.80
2020,08,17,07,14,22.80
2020,08,17,07,15,22.80
2020,08,17,07,16,22.80
2020,08,17,07,17,22.80
2020,08,17,07,18,22.80
2020,08,17,07,19,22.80
2020,08,17,07,20,22.70
2020,08,17,07,21,22.70
2020,08,17,07,22,22.70
2020,08,17,07,23,22.70
2020,08,17,07,24,22.70
2020,08,17,07,25,22.70
2020,08,17,07,26,22.80
2020,08,17,07,27,22.80
2020,08,17,07,28,22.80
2020,08,17,07,29,22.80
2020,08,17,07,30,22.80
2020,08,17,07,31,22.80
2020,08,17,07,32,22.80
2020,08,17,07,33,22.80
2020,08,17,07,34,22.80
2020,08,17,07,35,22.80
2020,08,17,07,36,22.80
2020,08,17,07,37,22.80
2020,08,17,07,38,22.90
2020,08,17,07,39,23.00
2020,08,17,07,40,23.00
2020,08,17,07,41,23.10
2020,08,17,07,42,23.20
2020,08,17,07,43,23.20
2020,08,17,07,44,23.20
2020,08,17,07,45,23.20
2020,08,17,07,46,23.30
2020,08,17,07,47,23.30
2020,08,17,07,48,23.30
2020,08,17,07,49,23.30
2020,08,17,07,50,23.30
2020,08,17,07,51,23.30
2020,08,17,07,52,23.30
2020,08,17,07,53,23.40
2020,08,17,07,54,23.40
2020,08,17,07,55,23.40
2020,08,17,07,56,23.50
2020,08,17,07,57,23.50
2020,08,17,07,58,23.40
2020,08,17,07,59,23.40
2020,08,17,08,00,23.30
2020,08,17,08,01,23.20
2020,08,17,08,02,23.10
2020,08,17,08,03,23.10
2020,08,17,08,04,23.00
2020,08,17,08,05,22.90
2020,08,17,08,06,22.80
2020,08,17,08,07,22.70
2020,08,17,08,08,22.60
2020,08,17,08,09,22.50
2020,08,17,08,10,22.40
2020,08,17,08,11,22.40
2020,08,17,08,12,22.30
2020,08,17,08,13,22.20
2020,08,17,08,14,22.20
2020,08,17,08,15,22.20
2020,08,17,08,16,22.20
2020,08,17,08,17,22.10
2020,08,17,08,18,22.10
2020,08,17,08,19,22.10
2020,08,17,08,20,22.10
2020,08,17,08,21,22.10
2020,08,17,08,22,22.10
2020,08,17,08,23,22.10
2020,08,17,08,24,22.10
2020,08,17,08,25,22.10
2020,08,17,08,26,22.10
2020,08,17,08,27,22.10
2020,08,17,08,28,22.10
2020,08,17,08,29,22.00
2020,08,17,08,30,22.00
2020,08,17,08,31,21.90
2020,08,17,08,32,21.90
2020,08,17,08,33,21.80
2020,08,17,08,34,21.80
2020,08,17,08,35,21.90
2020,08,17,08,36,21.90
2020,08,17,08,37,21.90
2020,08,17,08,38,22.00
2020,08,17,08,39,22.00
2020,08,17,08,40,22.00
2020,08,17,08,41,22.10
2020,08,17,08,42,22.10
2020,08,17,08,43,22.10
2020,08,17,08,44,22.10
2020,08,17,08,45,22.10
2020,08,17,08,46,22.20
2020,08,17,08,47,22.30
2020,08,17,08,48,22.40
2020,08,17,08,49,22.50
2020,08,17,08,50,22.50
2020,08,17,08,51,22.60
2020,08,17,08,52,22.60
2020,08,17,08,53,22.60
2020,08,17,08,54,22.60
2020,08,17,08,55,22.50
2020,08,17,08,56,22.40
2020,08,17,08,57,22.30
2020,08,17,08,58,22.30
2020,08,17,08,59,22.20
2020,08,17,09,00,22.10
2020,08,17,09,01,22.00
2020,08,17,09,02,22.00
2020,08,17,09,03,21.90
2020,08,17,09,04,21.90
2020,08,17,09,05,21.90
2020,08,17,09,06,21.80
2020,08,17,09,07,21.80
2020,08,17,09,08,21.80
2020,08,17,09,09,21.80
2020,08,17,09,10,21.80
2020,08,17,09,11,21.80
2020,08,17,09,12,21.80
2020,08,17,09,13,21.80
2020,08,17,09,14,21.80
2020,08,17,09,15,21.80
2020,08,17,09,16,21.80
2020,08,17,09,17,21.80
2020,08,17,09,18,21.80
2020,08,17,09,19,21.80
2020,08,17,09,20,21.80
2020,08,17,09,21,21.80
2020,08,17,09,22,21.80
2020,08,17,09,23,21.80
2020,08,17,09,24,21.80
2020,08,17,09,25,21.80
2020,08,17,09,26,21.80
2020,08,17,09,27,21.80
2020,08,17,09,28,21.80
2020,08,17,09,29,21.90
2020,08,17,09,30,21.90
2020,08,17,09,31,21.90
2020,08,17,09,32,21.90
2020,08,17,09,33,22.00
2020,08,17,09,34,22.00
2020,08,17,09,35,22.10
2020,08,17,09,36,22.10
2020,08,17,09,37,22.10
2020,08,17,09,38,22.20
2020,08,17,09,39,22.20
2020,08,17,09,40,22.20
2020,08,17,09,41,22.30
2020,08,17,09,42,22.30
2020,08,17,09,43,22.40
2020,08,17,09,44,22.40
2020,08,17,09,45,22.50
2020,08,17,09,46,22.50
2020,08,17,09,47,22.60
2020,08,17,09,48,22.70
2020,08,17,09,49,22.80
2020,08,17,09,50,22.90
2020,08,17,09,51,23.00
2020,08,17,09,52,23.10
2020,08,17,09,53,23.20
2020,08,17,09,54,23.30
2020,08,17,09,55,23.40
2020,08,17,09,56,23.50
2020,08,17,09,57,23.50
2020,08,17,09,58,23.60
2020,08,17,09,59,23.60
2020,08,17,10,00,23.50
2020,08,17,10,01,23.50
2020,08,17,10,02,23.50
2020,08,17,10,03,23.60
2020,08,17,10,04,23.60
2020,08,17,10,05,23.70
2020,08,17,10,06,23.70
2020,08,17,10,07,23.80
2020,08,17,10,08,23.80
2020,08,17,10,09,23.90
2020,08,17,10,10,24.00
2020,08,17,10,11,24.00
2020,08,17,10,12,24.10
2020,08,17,10,13,24.00
2020,08,17,10,14,24.00
2020,08,17,10,15,24.00
2020,08,17,10,16,24.10
2020,08,17,10,17,24.20
2020,08,17,10,18,24.30
2020,08,17,10,19,24.30
2020,08,17,10,20,24.30
2020,08,17,10,21,24.30
2020,08,17,10,22,24.30
2020,08,17,10,23,24.30
2020,08,17,10,24,24.30
2020,08,17,10,25,24.40
2020,08,17,10,26,24.50
2020,08,17,10,27,24.50
2020,08,17,10,28,24.60
2020,08,17,10,29,24.60
2020,08,17,10,30,24.60
2020,08,17,10,31,24.60
2020,08,17,10,32,24.60
2020,08,17,10,33,24.60
2020,08,17,10,34,24.60
2020,08,17,10,35,24.70
2020,08,17,10,36,24.70
2020,08,17,10,37,24.70
2020,08,17,10,38,24.70
2020,08,17,10,39,24.80
2020,08,17,10,40,24.70
2020,08,17,10,41,24.80
2020,08,17,10,42,24.80
2020,08,17,10,43,24.80
2020,08,17,10,44,24.70
2020,08,17,10,45,24.70
2020,08,17,10,46,24.70
2020,08,17,10,47,24.70
2020,08,17,10,48,24.70
2020,08,17,10,49,24.80
2020,08,17,10,50,24.80
2020,08,17,10,51,24.80
2020,08,17,10,52,24.80
2020,08,17,10,53,24.80
2020,08,17,10,54,24.90
2020,08,17,10,55,24.90
2020,08,17,10,56,25.00
2020,08,17,10,57,25.10
2020,08,17,10,58,25.20
2020,08,17,10,59,25.30
2020,08,17,11,00,25.30
2020,08,17,11,01,25.30
2020,08,17,11,02,25.40
2020,08,17,11,03,25.40
2020,08,17,11,04,25.50
2020,08,17,11,05,25.60
2020,08,17,11,06,25.60
2020,08,17,11,07,25.70
2020,08,17,11,08,25.70
2020,08,17,11,09,25.70
2020,08,17,11,10,25.70
2020,08,17,11,11,25.70
2020,08,17,11,12,25.60
2020,08,17,11,13,25.60
2020,08,17,11,14,25.60
2020,08,17,11,15,25.50
2020,08,17,11,16,25.60
2020,08,17,11,17,25.60
2020,08,17,11,18,25.60
2020,08,17,11,19,25.70
2020,08,17,11,20,25.80
2020,08,17,11,21,25.80
2020,08,17,11,22,25.80
2020,08,17,11,23,25.90
2020,08,17,11,24,25.80
2020,08,17,11,25,25.90
2020,08,17,11,26,26.00
2020,08,17,11,27,26.00
2020,08,17,11,28,26.10
2020,08,17,11,29,26.10
2020,08,17,11,30,26.10
2020,08,17,11,31,26.10
2020,08,17,11,32,26.10
2020,08,17,11,33,26.10
2020,08,17,11,34,26.10
2020,08,17,11,35,26.10
2020,08,17,11,36,26.10
2020,08,17,11,37,26.20
2020,08,17,11,38,26.30
2020,08,17,11,39,26.40
2020,08,17,11,40,26.50
2020,08,17,11,41,26.60
2020,08,17,11,42,26.60
2020,08,17,11,43,26.60
2020,08,17,11,44,26.60
2020,08,17,11,45,26.60
2020,08,17,11,46,26.60
2020,08,17,11,47,26.60
2020,08,17,11,48,26.70
2020,08,17,11,49,26.70
2020,08,17,11,50,26.80
2020,08,17,11,51,26.80
2020,08,17,11,52,26.90
2020,08,17,11,53,26.90
2020,08,17,11,54,26.80
2020,08,17,11,55,26.80
2020,08,17,11,56,26.90
2020,08,17,11,57,26.90
2020,08,17,11,58,26.90
2020,08,17,11,59,27.00
2020,08,17,12,00,27.00
2020,08,17,12,01,27.10
2020,08,17,12,02,27.10
2020,08,17,12,03,27.10
2020,08,17,12,04,27.10
2020,08,17,12,05,27.10
2020,08,17,12,06,27.10
2020,08,17,12,07,27.10
2020,08,17,12,08,27.10
2020,08,17,12,09,27.20
2020,08,17,12,10,27.20
2020,08,17,12,11,27.20
2020,08,17,12,12,27.30
2020,08,17,12,13,27.30
2020,08,17,12,14,27.30
2020,08,17,12,15,27.30
2020,08,17,12,16,27.30
2020,08,17,12,17,27.30
2020,08,17,12,18,27.20
2020,08,17,12,19,27.20
2020,08,17,12,20,27.20
2020,08,17,12,21,27.10
2020,08,17,12,22,27.20
2020,08,17,12,23,27.30
2020,08,17,12,24,27.30
2020,08,17,12,25,27.30
2020,08,17,12,26,27.40
2020,08,17,12,27,27.40
2020,08,17,12,28,27.50
2020,08,17,12,29,27.50
2020,08,17,12,30,27.60
2020,08,17,12,31,27.50
2020,08,17,12,32,27.50
2020,08,17,12,33,27.50
2020,08,17,12,34,27.50
2020,08,17,12,35,27.50
2020,08,17,12,36,27.50
2020,08,17,12,37,27.50
2020,08,17,12,38,27.40
2020,08,17,12,39,27.50
2020,08,17,12,40,27.50
2020,08,17,12,41,27.60
2020,08,17,12,42,27.70
2020,08,17,12,43,27.80
2020,08,17,12,44,27.90
2020,08,17,12,45,28.00
2020,08,17,12,46,28.00
2020,08,17,12,47,28.10
2020,08,17,12,48,28.10
2020,08,17,12,49,28.10
2020,08,17,12,50,28.20
2020,08,17,12,51,28.20
2020,08,17,12,52,28.20
2020,08,17,12,53,28.20
2020,08,17,12,54,28.20
2020,08,17,12,55,28.20
2020,08,17,12,56,28.20
2020,08,17,12,57,28.20
2020,08,17,12,58,28.20
2020,08,17,12,59,28.30
2020,08,17,13,00,28.20
2020,08,17,13,01,28.10
2020,08,17,13,02,28.00
2020,08,17,13,03,27.70
2020,08,17,13,04,27.30
2020,08,17,13,05,27.20
2020,08,17,13,06,27.10
2020,08,17,13,07,27.10
2020,08,17,13,08,27.10
2020,08,17,13,09,27.10
2020,08,17,13,10,27.00
2020,08,17,13,11,26.90
2020,08,17,13,12,26.80
2020,08,17,13,13,26.80
2020,08,17,13,14,26.80
2020,08,17,13,15,26.80
2020,08,17,13,16,26.80
2020,08,17,13,17,26.90
2020,08,17,13,18,27.00
2020,08,17,13,19,27.10
2020,08,17,13,20,27.20
2020,08,17,13,21,27.20
2020,08,17,13,22,27.20
2020,08,17,13,23,27.30
2020,08,17,13,24,27.40
2020,08,17,13,25,27.50
2020,08,17,13,26,27.50
2020,08,17,13,27,27.60
2020,08,17,13,28,27.70
2020,08,17,13,29,27.80
2020,08,17,13,30,27.90
2020,08,17,13,31,27.80
2020,08,17,13,32,27.80
2020,08,17,13,33,27.70
2020,08,17,13,34,27.60
2020,08,17,13,35,27.60
2020,08,17,13,36,27.50
2020,08,17,13,37,27.60
2020,08,17,13,38,27.60
2020,08,17,13,39,27.70
2020,08,17,13,40,27.80
2020,08,17,13,41,27.80
2020,08,17,13,42,27.80
2020,08,17,13,43,27.80
2020,08,17,13,44,27.70
2020,08,17,13,45,27.70
2020,08,17,13,46,27.70
2020,08,17,13,47,27.80
2020,08,17,13,48,27.80
2020,08,17,13,49,27.80
2020,08,17,13,50,27.90
2020,08,17,13,51,27.90
2020,08,17,13,52,27.90
2020,08,17,13,53,27.90
2020,08,17,13,54,27.80
2020,08,17,13,55,27.80
2020,08,17,13,56,27.80
2020,08,17,13,57,27.80
2020,08,17,13,58,27.80
2020,08,17,13,59,27.80
2020,08,17,14,00,27.90
2020,08,17,14,01,27.90
2020,08,17,14,02,28.00
2020,08,17,14,03,28.00
2020,08,17,14,04,28.10
2020,08,17,14,05,28.20
2020,08,17,14,06,28.30
2020,08,17,14,07,28.40
2020,08,17,14,08,28.50
2020,08,17,14,09,28.60
2020,08,17,14,10,28.70
2020,08,17,14,11,28.80
2020,08,17,14,12,28.80
2020,08,17,14,13,28.90
2020,08,17,14,14,28.90
2020,08,17,14,15,28.90
2020,08,17,14,16,28.80
2020,08,17,14,17,28.80
2020,08,17,14,18,28.80
2020,08,17,14,19,28.80
2020,08,17,14,20,28.80
2020,08,17,14,21,28.80
2020,08,17,14,22,28.80
2020,08,17,14,23,28.80
2020,08,17,14,24,28.80
2020,08,17,14,25,28.80
2020,08,17,14,26,28.70
2020,08,17,14,27,28.60
2020,08,17,14,28,28.60
2020,08,17,14,29,28.50
2020,08,17,14,30,28.50
2020,08,17,14,31,28.40
2020,08,17,14,32,28.40
2020,08,17,14,33,28.40
2020,08,17,14,34,28.40
2020,08,17,14,35,28.50
2020,08,17,14,36,28.60
2020,08,17,14,37,28.70
2020,08,17,14,38,28.80
2020,08,17,14,39,28.90
2020,08,17,14,40,28.90
2020,08,17,14,41,28.90
2020,08,17,14,42,28.90
2020,08,17,14,43,28.80
2020,08,17,14,44,28.70
2020,08,17,14,45,28.70
2020,08,17,14,46,28.70
2020,08,17,14,47,28.70
2020,08,17,14,48,28.70
2020,08,17,14,49,28.70
2020,08,17,14,50,28.80
2020,08,17,14,51,28.80
2020,08,17,14,52,28.80
2020,08,17,14,53,28.80
2020,08,17,14,54,28.90
2020,08,17,14,55,28.90
2020,08,17,14,56,28.90
2020,08,17,14,57,28.80
2020,08,17,14,58,28.60
2020,08,17,14,59,28.40
2020,08,17,15,00,28.10
2020,08,17,15,01,27.90
2020,08,17,15,02,27.70
2020,08,17,15,03,27.50
2020,08,17,15,04,27.20
2020,08,17,15,05,26.90
2020,08,17,15,06,26.70
2020,08,17,15,07,26.50
2020,08,17,15,08,26.30
2020,08,17,15,09,26.20
2020,08,17,15,10,26.10
2020,08,17,15,11,26.10
2020,08,17,15,12,26.10
2020,08,17,15,13,26.20
2020,08,17,15,14,26.20
2020,08,17,15,15,26.20
2020,08,17,15,16,26.20
2020,08,17,15,17,26.30
2020,08,17,15,18,26.40
2020,08,17,15,19,26.60
2020,08,17,15,20,26.80
2020,08,17,15,21,26.90
2020,08,17,15,22,27.10
2020,08,17,15,23,27.20
2020,08,17,15,24,27.30
2020,08,17,15,25,27.30
2020,08,17,15,26,27.30
2020,08,17,15,27,27.30
2020,08,17,15,28,27.30
2020,08,17,15,29,27.30
2020,08,17,15,30,27.30
2020,08,17,15,31,27.30
2020,08,17,15,32,27.30
2020,08,17,15,33,27.30
2020,08,17,15,34,27.20
2020,08,17,15,35,27.30
2020,08,17,15,36,27.30
2020,08,17,15,37,27.30
2020,08,17,15,38,27.40
2020,08,17,15,39,27.30
2020,08,17,15,40,27.20
2020,08,17,15,41,27.00
2020,08,17,15,42,26.90
2020,08,17,15,43,26.90
2020,08,17,15,44,26.80
2020,08,17,15,45,26.80
2020,08,17,15,46,26.70
2020,08,17,15,47,26.60
2020,08,17,15,48,26.60
2020,08,17,15,49,26.50
2020,08,17,15,50,26.50
2020,08,17,15,51,26.40
2020,08,17,15,52,26.40
2020,08,17,15,53,26.40
2020,08,17,15,54,26.40
2020,08,17,15,55,26.50
2020,08,17,15,56,26.60
2020,08,17,15,57,26.70
2020,08,17,15,58,26.80
2020,08,17,15,59,26.90
2020,08,17,16,00,27.00
2020,08,17,16,01,26.90
2020,08,17,16,02,26.80
2020,08,17,16,03,26.70
2020,08,17,16,04,26.50
2020,08,17,16,05,26.40
2020,08,17,16,06,26.40
2020,08,17,16,07,26.30
2020,08,17,16,08,26.20
2020,08,17,16,09,26.00
2020,08,17,16,10,25.90
2020,08,17,16,11,25.70
2020,08,17,16,12,25.60
2020,08,17,16,13,25.50
2020,08,17,16,14,25.40
2020,08,17,16,15,25.40
2020,08,17,16,16,25.30
2020,08,17,16,17,25.30
2020,08,17,16,18,25.30
2020,08,17,16,19,25.40
2020,08,17,16,20,25.40
2020,08,17,16,21,25.50
2020,08,17,16,22,25.50
2020,08,17,16,23,25.60
2020,08,17,16,24,25.60
2020,08,17,16,25,25.70
2020,08,17,16,26,25.70
2020,08,17,16,27,25.80
2020,08,17,16,28,25.90
2020,08,17,16,29,26.00
2020,08,17,16,30,26.20
2020,08,17,16,31,26.20
2020,08,17,16,32,26.30
2020,08,17,16,33,26.40
2020,08,17,16,34,26.50
2020,08,17,16,35,26.60
2020,08,17,16,36,26.60
2020,08,17,16,37,26.60
2020,08,17,16,38,26.60
2020,08,17,16,39,26.60
2020,08,17,16,40,26.60
2020,08,17,16,41,26.70
2020,08,17,16,42,26.70
2020,08,17,16,43,26.70
2020,08,17,16,44,26.70
2020,08,17,16,45,26.70
2020,08,17,16,46,26.80
2020,08,17,16,47,26.80
2020,08,17,16,48,26.80
2020,08,17,16,49,26.80
2020,08,17,16,50,26.90
2020,08,17,16,51,26.90
2020,08,17,16,52,27.00
2020,08,17,16,53,27.10
2020,08,17,16,54,27.10
2020,08,17,16,55,27.20
2020,08,17,16,56,27.30
2020,08,17,16,57,27.30
2020,08,17,16,58,27.30
2020,08,17,16,59,27.30
2020,08,17,17,00,27.30
2020,08,17,17,01,27.40
2020,08,17,17,02,27.30
2020,08,17,17,03,27.30
2020,08,17,17,04,27.30
2020,08,17,17,05,27.30
2020,08,17,17,06,27.30
2020,08,17,17,07,27.30
2020,08,17,17,08,27.30
2020,08,17,17,09,27.30
2020,08,17,17,10,27.20
2020,08,17,17,11,27.20
2020,08,17,17,12,27.20
2020,08,17,17,13,27.20
2020,08,17,17,14,27.30
2020,08,17,17,15,27.30
2020,08,17,17,16,27.40
2020,08,17,17,17,27.40
2020,08,17,17,18,27.40
2020,08,17,17,19,27.50